Meteo Giornale » Osservazioni meteo Stati Uniti (USA) » Salinas
ore: 21:23 - Osservazioni Meteo Salinas
Lat. 36° 39' N Lon. 121° 36' W Alt. 25 metri s.l.m.
17 °C
Coperto
Temp. 24 Ore
14 °C
21 °C
Ovest
14.8 Km/h
Dew point 12 °C
Umidità 72 %
Visibilità 10 Km
Il sole sorge alle ore 06:37
Il sole tramonta alle ore 19:36
| Data e Ora | Cielo e Fenomeni | T °C | DP °C | Um. % | Pres. hPa | Vis. km | Vento km/h | |
|---|---|---|---|---|---|---|---|---|
| Oggi h: 21:23 | Coperto | 17 | 12 | 72 | 1015 | 10 | O 14.8 | |
| Oggi h: 20:53 | Coperto | 17 | 12 | 72 | 1014 | 10 | O 13 | |
| Oggi h: 20:12 | Molto Nuvoloso | 17 | 12 | 72 | 1014 | 10 | O/NO 14.8 | |
| Oggi h: 19:53 | Sereno | 17 | 12 | 72 | 1014 | 10 | O/NO 14.8 | |
| Oggi h: 18:53 | Coperto | 18 | 11 | 63 | 1014 | 10 | O/NO 24 | |
| Oggi h: 18:06 | Nuvoloso | 18 | 12 | 67 | 1014 | 10 | O 24 | |
| Oggi h: 17:53 | Molto Nuvoloso | 19 | 12 | 63 | 1014 | 10 | O/NO 22.2 | |
| Oggi h: 16:53 | Nuvoloso | 19 | 12 | 63 | 1014 | 10 | O/NO 18.5 | |
| Oggi h: 15:53 | Sereno | 20 | 12 | 59 | 1014 | 10 | O/NO 18.5 | |
| Oggi h: 14:53 | Sereno | 21 | 12 | 56 | 1014 | 10 | NO 16.7 | |
| Oggi h: 13:53 | Poco Nuvoloso | 20 | 11 | 56 | 1014 | 10 | O/NO 20.3 | |
| Oggi h: 12:53 | Sereno | 19 | 11 | 59 | 1015 | 10 | O/NO 14.8 | |
| Oggi h: 12:29 | Nuvoloso | 18 | 11 | 63 | 1015 | 10 | O/NO 9.3 | |
| Oggi h: 11:53 | Coperto | 18 | 11 | 63 | 1015 | 10 | O/NO 13 | |
| Oggi h: 10:53 | Coperto | 17 | 11 | 67 | 1016 | 10 | N/NO 13 | |
| Oggi h: 09:53 | Coperto | 17 | 11 | 67 | 1015 | 10 | O 11.1 | |
| Oggi h: 08:53 | Coperto | 16 | 11 | 72 | 1015 | 10 | O 7.4 | |
| Oggi h: 07:53 | Coperto | 14 | 11 | 82 | 1015 | 10 | N 0 | |
| Oggi h: 07:26 | Coperto | 14 | 11 | 82 | 1014 | 10 | SO 11.1 | |
| Oggi h: 06:53 | Coperto | 14 | 11 | 82 | 1014 | 10 | O 7.4 | |
| Oggi h: 05:53 | Coperto | 14 | 12 | 87 | 1014 | 10 | O 14.8 | |
| Oggi h: 04:53 | Coperto | 14 | 11 | 82 | 1014 | 10 | N 11.1 | |
| Oggi h: 04:14 | Coperto | 14 | 11 | 82 | 1013 | 10 | O 14.8 | |
| Oggi h: 03:53 | Coperto | 14 | 12 | 87 | 1013 | 10 | O 11.1 | |
| Oggi h: 02:53 | Coperto | 14 | 12 | 87 | 1014 | 10 | O 18.5 | |
| Oggi h: 02:20 | Coperto | 14 | 12 | 87 | 1013 | 10 | O 14.8 | |
| Oggi h: 01:53 | Coperto | 14 | 12 | 87 | 1013 | 10 | N 11.1 | |
| Oggi h: 00:53 | Coperto | 14 | 12 | 87 | 1013 | 10 | O/SO 11.1 | |
| Ieri h: 23:53 | Coperto | 15 | 12 | 82 | 1013 | 10 | O/NO 9.3 | |
| Ieri h: 22:53 | Coperto | 15 | 12 | 82 | 1013 | 10 | NO 11.1 | |
| Ieri h: 21:53 | Coperto | 15 | 12 | 82 | 1014 | 10 | NO 13 | |



